[[{"header":{"parameterUnit":"m.s-1","parameterCategory":1,"la1":30.2991,"la2":30.254,"lo1":-89.0895,"lo2":-89.0444,"dy":0.0017,"dx":0.0017,"nx":28,"ny":28,"refTime":"2024-06-04T21:00:00:Z","depth":0,"parameterNumber":2,"parameterNumberName":"U-component_of_WINDS"},"data":[0,0,0,0,0,0,0,0,0,0,0,0,0,0,0,0,0,0,0,0,0,0,0,0,0,0,0,0,0,0,0,0,0,0,0,0,0,0,0,0,0,0,0,0,0,0,0,0,0,0,0,0,0,0,0,0,0,0,-1.8115,-1.8115,0,-1.8145,-1.8145,-1.8146,-1.8152,-1.8152,-1.8152,-1.8152,-1.818,-1.8181,-1.8182,0,0,0,0,0,0,0,0,0,0,0,0,0,-1.8062,-1.8062,-1.8115,-1.8116,-1.8116,-1.8145,-1.8145,-1.8146,-1.8152,-1.8152,-1.8152,-1.8151,-1.818,-1.8181,-1.8182,0,0,0,0,0,0,0,0,0,0,0,0,0,-1.8087,-1.8063,-1.8115,-1.8123,-1.8124,-1.8145,-1.8145,-1.8146,-1.8152,-1.8152,-1.8152,-1.8151,-1.818,-1.8181,-1.8182,-1.8198,0,0,-1.8187,-1.8187,0,0,0,0,0,0,0,0,-1.8086,-1.8089,-1.8121,-1.8122,-1.8123,-1.8145,-1.8137,-1.8163,-1.8152,-1.8141,-1.8152,-1.8151,-1.8168,-1.8171,-1.8177,-1.8199,-1.82,-1.8187,-1.8188,-1.8188,-1.8189,0,0,0,0,0,0,0,-1.8084,-1.8088,-1.8127,-1.8122,-1.8123,-1.8124,-1.8127,-1.8142,-1.8156,-1.8142,-1.8143,-1.8146,-1.8169,-1.8176,-1.8178,-1.8201,-1.8187,-1.8188,-1.8189,-1.819,-1.8236,-1.8236,0,0,0,0,0,0,-1.8081,-1.8087,-1.8126,-1.8128,-1.8103,-1.8125,-1.8129,-1.8138,-1.8156,-1.8159,-1.8147,-1.8147,-1.8173,-1.8176,-1.8179,-1.8197,-1.8188,-1.819,-1.8191,-1.8236,-1.8236,-1.8236,0,0,0,0,0,0,-1.808,-1.8085,-1.8125,-1.8107,-1.8113,-1.8126,-1.8137,-1.8139,-1.8146,-1.8159,-1.8162,-1.8151,-1.8173,-1.8177,-1.8193,-1.8199,-1.819,-1.8192,-1.8235,-1.8236,-1.8236,-1.8235,0,0,0,0,0,0,-1.8079,-1.8084,-1.8091,-1.8108,-1.8113,-1.8139,-1.8137,-1.814,-1.8148,-1.8148,-1.8164,-1.8166,-1.8173,-1.8191,-1.8194,-1.82,-1.8193,-1.8235,-1.8235,-1.8236,-1.8235,-1.8236,-1.8236,0,0,0,0,0,-1.8077,-1.8089,-1.8091,-1.8096,-1.8122,-1.8139,-1.8143,-1.8151,-1.8149,-1.8155,-1.8164,-1.8166,-1.8198,-1.8192,-1.8196,-1.8203,-1.8234,-1.8235,-1.8236,-1.8234,-1.8235,-1.8236,0,0,0,0,0,0,-1.8072,-1.8091,-1.8094,-1.8112,-1.8124,-1.814,-1.8149,-1.8152,-1.8164,-1.8164,-1.8173,-1.8176,-1.8192,-1.8199,-1.8193,-1.8218,-1.8216,-1.8217,-1.8213,-1.8214,-1.8215,-1.8213,-1.8194,0,0,0,0,0,-1.8073,-1.8086,-1.8102,-1.8117,-1.8123,-1.8135,-1.8142,-1.8148,-1.816,-1.8165,-1.8175,-1.8187,-1.8199,-1.8207,-1.8219,-1.8236,-1.8239,-1.8242,-1.8243,-1.8244,-1.8245,-1.8254,-1.8255,-1.8239,-1.8239,-1.8239,0,0,-1.8076,-1.8088,-1.8095,-1.8116,-1.8126,-1.8139,-1.8139,-1.8152,-1.8162,-1.8167,-1.8183,-1.8191,-1.8204,-1.822,-1.8228,-1.8227,-1.825,-1.8245,-1.8245,-1.8246,-1.8255,-1.8256,-1.8257,-1.824,-1.824,-1.824,0,0,-1.8086,-1.8097,-1.811,-1.812,-1.8135,-1.8143,-1.8146,-1.8162,-1.8168,-1.8184,-1.8188,-1.8199,-1.8221,-1.823,-1.8237,-1.8251,-1.8253,-1.8255,-1.8259,-1.8267,-1.8268,-1.8269,-1.8274,-1.8275,-1.8256,-1.8256,-1.8256,0,-1.8087,-1.8107,-1.8116,-1.813,-1.8138,-1.8145,-1.8157,-1.8166,-1.8185,-1.819,-1.8189,-1.8216,-1.8225,-1.8243,-1.8247,-1.8253,-1.8256,-1.8253,-1.8268,-1.8269,-1.827,-1.8274,-1.8276,-1.8256,-1.8256,-1.8256,-1.8256,0,-1.8107,-1.8121,-1.8129,-1.8147,-1.8157,-1.817,-1.818,-1.8189,-1.8193,-1.8201,-1.8217,-1.8229,-1.8243,-1.8248,-1.8252,-1.8267,-1.8266,-1.8266,-1.8263,-1.8271,-1.8275,-1.8277,-1.8256,-1.8256,-1.8256,-1.8256,0,0,-1.8115,-1.8138,-1.8141,-1.8149,-1.8166,-1.8177,-1.819,-1.8204,-1.8211,-1.8224,-1.8234,-1.8252,-1.8252,-1.8261,-1.8266,-1.8274,-1.8283,-1.8273,-1.8273,-1.8274,-1.8299,-1.8298,-1.83,-1.8285,-1.8285,-1.8286,-1.8298,0,-1.8128,-1.8152,-1.816,-1.818,-1.8192,-1.8198,-1.8209,-1.822,-1.8228,-1.8239,-1.8247,-1.8259,-1.8259,-1.8264,-1.8272,-1.828,-1.8288,-1.828,-1.8294,-1.8294,-1.829,-1.8302,-1.8302,-1.8312,-1.8299,-1.83,-1.83,0,-1.8145,-1.8158,-1.8179,-1.8194,-1.8199,-1.8209,-1.8223,-1.8234,-1.8247,-1.8252,-1.8261,-1.8266,-1.8279,-1.8276,-1.8294,-1.8288,-1.8294,-1.8299,-1.83,-1.8301,-1.8297,-1.8303,-1.8316,-1.8317,-1.8303,-1.8302,-1.8302,0,-1.8148,-1.8171,-1.8186,-1.8193,-1.8211,-1.8218,-1.8226,-1.8238,-1.8246,-1.8258,-1.8264,-1.8277,-1.8284,-1.8294,-1.8302,-1.8299,-1.8318,-1.8316,-1.8322,-1.8322,-1.8325,-1.8325,-1.8339,-1.8331,-1.8331,-1.8331,-1.8331,0,-1.8161,-1.8173,-1.8188,-1.8197,-1.8211,-1.822,-1.8233,-1.8241,-1.8252,-1.8263,-1.8269,-1.8278,-1.8289,-1.8299,-1.8306,-1.8319,-1.8322,-1.8326,-1.8327,-1.8325,-1.8324,-1.8329,-1.8328,-1.8331,-1.8331,-1.8331,-1.8331,0,-1.8166,-1.8177,-1.8194,-1.821,-1.8214,-1.8223,-1.8237,-1.8245,-1.8253,-1.8266,-1.827,-1.8282,-1.8295,-1.8304,-1.8321,-1.8325,-1.8339,-1.8341,-1.8335,-1.8335,-1.8341,-1.834,-1.8357,-1.836,-1.835,-1.835,-1.835,0,-1.8173,-1.8183,-1.82,-1.8208,-1.8216,-1.8228,-1.8236,-1.8246,-1.8254,-1.827,-1.8276,-1.829,-1.8301,-1.8321,-1.8331,-1.8343,-1.8345,-1.835,-1.8347,-1.8344,-1.8344,-1.8344,-1.8344,-1.8351,-1.8351,-1.8351,-1.8351,0,-1.8184,-1.8189,-1.8201,-1.8215,-1.8225,-1.8237,-1.8248,-1.8254,-1.8265,-1.8274,-1.8288,-1.8297,-1.8314,-1.8327,-1.834,-1.8347,-1.8351,-1.8352,-1.8354,-1.8351,-1.8347,-1.8349,-1.8335,-1.8351,-1.8351,-1.8351,-1.8351,-1.8351,-1.819,-1.8199,-1.8212,-1.8225,-1.8235,-1.8246,-1.8255,-1.8264,-1.8275,-1.829,-1.8295,-1.8309,-1.8321,-1.834,-1.8347,-1.8358,-1.8357,-1.836,-1.8361,-1.8361,-1.8361,-1.8346,-1.836,-1.836,-1.836,-1.836,-1.836,0,-1.8201,-1.821,-1.8222,-1.8238,-1.8248,-1.8251,-1.8264,-1.8272,-1.8285,-1.8296,-1.8307,-1.8322,-1.8335,-1.8346,-1.8358,-1.8365,-1.8367,-1.8368,-1.8367,-1.8369,-1.8361,-1.8358,-1.8366,-1.8366,-1.8366,-1.8366,-1.8366,-1.8366,-1.8207,-1.8222,-1.8228,-1.8247,-1.8256,-1.827,-1.8277,-1.8287,-1.8296,-1.8313,-1.8323,-1.8331,-1.8342,-1.8355,-1.8367,-1.837,-1.8374,-1.8374,-1.8378,-1.837,-1.8369,-1.8368,-1.8365,-1.8375,-1.8375,-1.8384,-1.8384,-1.8385]},{"header":{"parameterUnit":"m.s-1","parameterCategory":1,"la1":30.2991,"la2":30.254,"lo1":-89.0895,"lo2":-89.0444,"dy":0.0017,"dx":0.0017,"nx":28,"ny":28,"refTime":"2024-06-04T21:00:00:Z","depth":0,"parameterNumber":3,"parameterNumberName":"V-component_of_WINDS"},"data":[0,0,0,0,0,0,0,0,0,0,0,0,0,0,0,0,0,0,0,0,0,0,0,0,0,0,0,0,0,0,0,0,0,0,0,0,0,0,0,0,0,0,0,0,0,0,0,0,0,0,0,0,0,0,0,0,0,0,4.235,4.235,0,4.2364,4.2364,4.2365,4.2369,4.2369,4.2369,4.2369,4.2385,4.2385,4.2386,0,0,0,0,0,0,0,0,0,0,0,0,0,4.2329,4.2329,4.235,4.235,4.235,4.2364,4.2364,4.2365,4.2369,4.2369,4.2369,4.2369,4.2384,4.2385,4.2386,0,0,0,0,0,0,0,0,0,0,0,0,0,4.234,4.233,4.235,4.2354,4.2355,4.2364,4.2364,4.2365,4.2369,4.2369,4.2369,4.2369,4.2384,4.2385,4.2386,4.2392,0,0,4.2388,4.2388,0,0,0,0,0,0,0,0,4.234,4.2341,4.2353,4.2354,4.2354,4.2365,4.2363,4.2374,4.2369,4.2364,4.2369,4.2369,4.2378,4.2379,4.2382,4.2393,4.2393,4.2388,4.2388,4.2389,4.2389,0,0,0,0,0,0,0,4.2339,4.234,4.2355,4.2353,4.2354,4.2356,4.2358,4.2365,4.2371,4.2364,4.2365,4.2366,4.2378,4.2382,4.2383,4.2394,4.2388,4.2389,4.2389,4.2389,4.2415,4.2415,0,0,0,0,0,0,4.2337,4.234,4.2355,4.2356,4.2347,4.2357,4.2359,4.2362,4.2371,4.2373,4.2366,4.2366,4.238,4.2382,4.2383,4.2394,4.2389,4.2389,4.239,4.2415,4.2415,4.2415,0,0,0,0,0,0,4.2337,4.2338,4.2354,4.2348,4.235,4.2357,4.2361,4.2362,4.2365,4.2373,4.2374,4.2368,4.238,4.2382,4.2391,4.2395,4.239,4.239,4.2414,4.2415,4.2415,4.2414,0,0,0,0,0,0,4.2336,4.2338,4.2339,4.2348,4.2351,4.236,4.2361,4.2362,4.2366,4.2367,4.2375,4.2376,4.2381,4.239,4.2392,4.2396,4.2391,4.2414,4.2414,4.2415,4.2414,4.2415,4.2415,0,0,0,0,0,4.2335,4.2338,4.234,4.2341,4.2352,4.2361,4.2362,4.2367,4.2366,4.2369,4.2375,4.2376,4.2394,4.2391,4.2393,4.2397,4.2414,4.2414,4.2415,4.2414,4.2415,4.2415,0,0,0,0,0,0,4.2329,4.2339,4.2341,4.2346,4.2353,4.2361,4.2364,4.2367,4.2373,4.2373,4.2379,4.2381,4.239,4.2394,4.239,4.2406,4.2404,4.2405,4.2403,4.2403,4.2404,4.2403,4.2391,0,0,0,0,0,4.2328,4.2333,4.2342,4.2346,4.2349,4.2356,4.236,4.2364,4.2371,4.2373,4.2379,4.2387,4.2394,4.2399,4.2406,4.2415,4.2419,4.2419,4.242,4.242,4.2421,4.243,4.2431,4.2417,4.2417,4.2417,0,0,4.2326,4.2333,4.2335,4.2345,4.235,4.2357,4.2358,4.2364,4.237,4.2374,4.2383,4.2388,4.2397,4.2407,4.2411,4.2411,4.2427,4.2421,4.2421,4.2422,4.2431,4.2432,4.2433,4.2417,4.2417,4.2417,0,0,4.2327,4.2331,4.2337,4.2343,4.2352,4.2357,4.2359,4.2368,4.2372,4.2381,4.2385,4.2393,4.2405,4.2412,4.2417,4.2426,4.2429,4.2428,4.2431,4.244,4.2441,4.2442,4.2447,4.2449,4.2429,4.2429,4.2429,0,4.2324,4.2333,4.2339,4.2346,4.2352,4.2357,4.2364,4.237,4.238,4.2385,4.2384,4.2402,4.2408,4.2421,4.2424,4.2427,4.2431,4.2427,4.244,4.2441,4.2442,4.2448,4.245,4.2429,4.2429,4.2429,4.2429,0,4.233,4.2337,4.2341,4.2353,4.2358,4.2365,4.2374,4.2379,4.2384,4.239,4.2401,4.2409,4.242,4.2424,4.2426,4.2438,4.2438,4.2439,4.2437,4.2444,4.2449,4.2451,4.2429,4.2429,4.2429,4.2429,0,0,4.2325,4.2342,4.2344,4.2351,4.2363,4.2369,4.2378,4.2389,4.2395,4.2403,4.2412,4.2425,4.2426,4.2432,4.2437,4.2444,4.2455,4.2444,4.2445,4.2448,4.2472,4.2472,4.2474,4.2457,4.2457,4.2457,4.2472,0,4.2328,4.2343,4.2351,4.2363,4.2372,4.2379,4.2387,4.2397,4.2404,4.2413,4.2421,4.2431,4.2431,4.2435,4.2443,4.2452,4.246,4.245,4.2467,4.2467,4.2465,4.2477,4.2476,4.249,4.2474,4.2474,4.2474,0,4.2333,4.2343,4.2357,4.2372,4.2376,4.2383,4.2396,4.2404,4.2416,4.2421,4.243,4.2436,4.2448,4.2446,4.2464,4.2458,4.2465,4.2471,4.2472,4.2474,4.2472,4.2481,4.2493,4.2496,4.2477,4.2477,4.2477,0,4.2331,4.2347,4.2359,4.2364,4.2381,4.2387,4.2394,4.2406,4.2414,4.2426,4.2432,4.2444,4.2452,4.2463,4.2473,4.247,4.2491,4.2489,4.2497,4.2497,4.2501,4.2501,4.2517,4.2504,4.2504,4.2504,4.2504,0,4.2334,4.2343,4.2358,4.2365,4.2377,4.2386,4.2398,4.2406,4.2417,4.2428,4.2435,4.2445,4.2456,4.2469,4.2477,4.2493,4.2495,4.2501,4.2503,4.2501,4.2501,4.2506,4.2506,4.2505,4.2505,4.2505,4.2504,0,4.2332,4.2342,4.2356,4.2372,4.2377,4.2385,4.2399,4.2408,4.2417,4.243,4.2434,4.2448,4.2463,4.2474,4.2493,4.2499,4.2517,4.2518,4.2513,4.2514,4.2523,4.2522,4.2543,4.2548,4.2531,4.2531,4.2531,0,4.2334,4.2341,4.2359,4.2367,4.2375,4.2387,4.2395,4.2407,4.2416,4.2433,4.244,4.2456,4.2469,4.2494,4.2506,4.2522,4.2525,4.2532,4.2527,4.2527,4.2528,4.2528,4.253,4.2532,4.2532,4.2533,4.2533,0,4.2337,4.2343,4.2354,4.237,4.238,4.2392,4.2405,4.2411,4.2425,4.2436,4.2452,4.2462,4.2484,4.2501,4.2519,4.2528,4.2534,4.2534,4.2537,4.2536,4.2533,4.2537,4.2516,4.2533,4.2533,4.2533,4.2533,4.2533,4.2338,4.2346,4.2361,4.2376,4.2387,4.2399,4.2409,4.2421,4.2434,4.2453,4.2459,4.2477,4.2493,4.2518,4.2528,4.2544,4.2544,4.2547,4.2549,4.255,4.2551,4.253,4.2547,4.2547,4.2547,4.2547,4.2547,0,4.2343,4.2354,4.2367,4.2386,4.2398,4.2403,4.2418,4.2429,4.2444,4.2459,4.2473,4.2494,4.2511,4.2527,4.2546,4.2555,4.2559,4.256,4.256,4.2563,4.2549,4.2545,4.2557,4.2557,4.2557,4.2557,4.2557,4.2557,4.2347,4.2362,4.2371,4.2393,4.2404,4.2422,4.2431,4.2444,4.2456,4.2479,4.2494,4.2505,4.2521,4.2542,4.2559,4.2564,4.2571,4.2573,4.2578,4.2564,4.2563,4.2562,4.2559,4.2574,4.2574,4.2591,4.2591,4.2591]}]]